Location: Spondin
(51.8528°N, 111.6118°W)
Time: 07:36:52
(UTC+00:00)

X-37B - Pass Details

Date: 11 October 2023
Orbit: 277 x 277 km, 45.0° (Epoch: 01 November)

Event Time Altitude Azimuth Distance (km) Brightness Sun altitude
Rises 02:34:29 0° 236° (SW) 1,913 4.8 -17.9°
Reaches altitude 10° 02:36:50 10° 212° (SSW) 1,101 3.1 -18.2°
Enters shadow 02:37:13 12° 204° (SSW) 1,006 2.8 -18.3°
